Regional Weather Roundup
Issued by NWS Charleston, SC

Current Version | Previous Version | Graphics & Text | Print | Product List | Glossary On
Versions: 1 2 3 4 5 6 7 8 9 10 11 12 13 14 15 16 17 18 19 20 21 22 23 24 25 26 27 28 29 30 31 32 33 34 35 36 37 38 39 40 41 42 43 44 45 46 47 48 49 50
000
ASUS42 KCHS 172327
RWRCHS

REGIONAL WEATHER ROUNDUP
NATIONAL WEATHER SERVICE CHARLESTON SC
700 PM EDT THU AUG 17 2017

NOTE: "FAIR" INDICATES FEW OR NO CLOUDS BELOW 12,000 FEET WITH NO
SIGNIFICANT WEATHER AND/OR OBSTRUCTIONS TO VISIBILITY.

NOT ALL STATIONS ARE QUALITY CONTROLLED. USE DATA WITH CAUTION...
ESPECIALLY DEWPOINT OBSERVATIONS.

SCZ027-030-031-034>040-042>050-180000-
...SOUTHEAST SOUTH CAROLINA...

CITY           SKY/WX    TMP DP  RH WIND       PRES   REMARKS
N CHARLESTON   CLOUDY    84  75  74 SE6       29.98R HX  92
WATERFRONT PRK   N/A    N/A N/A N/A E6        29.81F
JOHNS ISLAND   FAIR      88  82  84 CALM      29.98R HX 108
PINOPOLIS        N/A     84  79  84 VRB3      29.90S HX  96
MONCKS CORNER  FAIR      82  77  83 S3        29.98R HX  91
SUMMERVILLE    FAIR      86  79  79 SE5       29.98R HX  99
BEAUFORT MCAS  PTSUNNY   91  79  67 S7        29.97R HX 107
BEAUFORT ARPT  FAIR      88  77  70 S8        29.97R HX 100
HILTON HEAD IS SUNNY     88  79  74 S12       29.98R HX 102
WALTERBORO     CLOUDY    88  77  70 SE9       29.98R HX 100
ALLENDALE      NOT AVBL

...SOUTHERN MIDLANDS AND PEE DEE...

CITY           SKY/WX    TMP DP  RH WIND       PRES   REMARKS
GEORGETOWN     FAIR      81  79  94 CALM      29.98F
KINGSTREE      FAIR      82  77  83 SE5       29.96F HX  91
ORANGEBURG     SUNNY     90  74  59 SW6       29.96R HX  99
BARNWELL       FAIR      95  77  55 CALM      29.96R HX 109
AIKEN          FAIR      90  73  58 SW5       30.00S HX  98
MANNING        FAIR      86  75  70 CALM      29.97R HX  95
COLUMBIA       MOSUNNY   92  74  55 W7        29.94R HX 101
SUMTER         MOSUNNY   93  73  50 S6        29.93R HX 102
FLORENCE       CLOUDY    86  76  71 E10       29.97S HX  96
MYRTLE BEACH   PTSUNNY   81  77  89 E6        29.99
N MYRTLE BEACH CLOUDY    77  77 100 CALM      29.98F

$$

GAZ063-065-086>088-099>101-113>116-118-119-134>141-150-180000-
...SOUTHEAST GEORGIA...

CITY           SKY/WX    TMP DP  RH WIND       PRES   REMARKS
SAVANNAH ARPT  MOSUNNY   90  76  63 S13       29.97R HX 101
HUNTER AAF     NOT AVBL
FORT STEWART   MOSUNNY   84  77  79 SE7       29.96S HX  94
STATESBORO     SUNNY     94  68  42 SW3       29.96S HX  98
SYLVANIA       CLEAR     91  81  71 CALM      29.97S HX 111
CLAXTON        MOCLDY    91  80  68 SE3       29.97R THUNDER HX 108

...CSRA...CENTRAL AND FAR SOUTHEAST GEORGIA...

CITY           SKY/WX    TMP DP  RH WIND       PRES   REMARKS
THOMSON        MOSUNNY   86  76  71 NE7       30.04R HX  95
AUGUSTA-BUSH   SUNNY     94  74  52 SW7       29.94S HX 104
AUGUSTA-DANIEL SUNNY     93  70  46 VRB6      29.97S HX  99
SWAINSBORO     FAIR      91  75  59 NW3       29.98S HX 102
VIDALIA        SUNNY     91  72  52 W5        29.98S HX  98
EASTMAN        FAIR      92  60  33 W6        30.01S HX  92
HAZLEHURST     FAIR      93  60  33 NW5       29.98S HX  93
ALMA           CLOUDY    89  76  65 S12       29.99R HX 100
WAYCROSS       HVY RAIN  79  76  90 W5        30.03R
JESUP          CLOUDY    86  75  70 NE3       30.00R HX  95
BAXLEY         FAIR      90  70  51 NW5       29.98S HX  95
BRUNSWICK      CLOUDY    82  73  74 SW3       29.99F
SAINT SIMONS   PTSUNNY   85  79  82 SW8       29.98F HX  98

$$

SCZ027-028-034-036>038-045-046-048>050-GAZ119-141-180000-
...LAKE AND SUPPLEMENTAL COASTAL OBSERVATIONS...

STATION/POSITION TIME  TEMP    WIND        PRES    WAVE   SWELL
                       AIR SEA DIR/SP/G            HT/PER HT/PER/DIR
                 (UTC) (F)     (DEG/KT/KT) (MB)    (FT/S) (FT/S/D)
WINYAH BAY       2245   82      30/  4     1015.0S
LAKE MURRAY      2230   88     220/ 14/ 19 1012.9S
ACE BASIN NERRS  2245   86        CALM     1015.0S
FORT PULASKI     2300   87 86  210/  8/ 12 1015.3
SAPELO ISLAND    2300   87     190/  8     1015.0

$$

ANZ835-935-AMZ111-154-330-350-352-354-370-450-454-472-180000-
...C-MAN AND BUOY OBSERVATIONS...

STATION/POSITION TIME  TEMP    WIND        PRES    WAVE   SWELL
                       AIR SEA DIR/SP/G            HT/PER HT/PER/DIR
                 (UTC) (F)     (DEG/KT/KT) (MB)    (FT/S) (FT/S/D)
BUOY 41004       2310   85 85  210/  6/  6 1015.1
BUOY 41008       2250   86 87  190/ 12/ 16 1015.0S   1/10
FOLLY BEACH CMAN 2300   87     210/ 10/ 11 1015.9R
CAPERS NEARSHORE 2308   83 86  140/  6/  8 1015.3R
FRIPP NEARSHORE  2308   87     210/ 12/ 14 1014.7R


STATION/POSITION TIME  TEMP    WIND        PRES    WAVE   SWELL
                       AIR SEA DIR/SP/G            HT/PER HT/PER/DIR
                 (UTC) (F)     (DEG/KT/KT) (MB)    (FT/S) (FT/S/D)
5E ST. MARYS GA  2300      86                N/A     1/ 9
FRYING PAN BUOY  2310   85 85   CALM  /  2 1015.3
BUOY 41025       2250   83 87  160/  8/ 10 1015.9R   2/ 8   2/ 70/ 8
CAPE LOOKOUT NC  2300   83     150/  7/  8 1015.4R
BUOY 41002       2250   85 85  280/  2/  2 1016.4R   2/ 5   2/260/ 5
BUOY 41010       2310   86 87  210/  6/  8 1016.7
ST AUGUSTINE FL  2300   83 82  190/  3/  4 1016.2F


$$




USA.gov is the U.S. government's official web portal to all federal, state and local government web resources and services.